Location: *
(51.1248°S, 108.4023°W)
Time: 01:02:19
(UTC+00:00)

MOS 1-B - Visible Passes

Search period start: 24 October 2021 00:00
Search period end: 03 November 2021 00:00
Orbit: 904 x 914 km, 99.4° (Epoch: 23 October)

Date Brightness Start Highest point End Pass type
(mag) Time Alt. Az. Time Alt. Az. Time Alt. Az.
24 Oct 6.6 03:44:44 10° S 03:49:40 29° WSW 03:54:35 10° WNW visible
24 Oct 7.8 10:24:26 10° ESE 10:25:59 11° SE 10:27:32 10° SSE visible
25 Oct 6.7 03:50:07 10° S 03:54:56 27° SW 03:59:42 10° WNW visible
25 Oct 7.7 10:29:08 10° ESE 10:31:11 12° SE 10:33:13 10° SSE visible
26 Oct 6.8 03:55:29 10° S 04:00:10 25° SW 04:04:48 10° WNW visible
26 Oct 7.7 10:33:57 10° ESE 10:36:23 13° SE 10:38:49 10° SSE visible
27 Oct 6.9 04:00:54 10° S 04:05:25 23° SW 04:09:54 10° WNW visible
27 Oct 7.6 10:38:50 10° ESE 10:41:35 14° SE 10:44:22 10° SSE visible
28 Oct 7.0 04:06:18 10° S 04:10:39 22° SW 04:14:58 10° W visible
28 Oct 7.5 10:43:45 10° ESE 10:46:49 15° SE 10:49:52 10° SSE visible
29 Oct 7.1 04:11:42 10° S 04:15:53 20° SW 04:20:02 10° W visible
29 Oct 7.5 10:48:43 10° E 10:52:01 16° SE 10:55:21 10° SSE visible
30 Oct 7.2 04:17:07 10° S 04:21:07 19° SW 04:25:05 10° W visible
30 Oct 7.4 10:53:41 10° E 10:57:14 17° SE 11:00:48 10° S visible
31 Oct 7.3 04:22:33 10° S 04:26:20 18° SW 04:30:06 10° W visible
31 Oct 7.4 10:58:41 10° E 11:02:28 18° SE 11:06:14 10° S visible
01 Nov 7.3 04:28:00 10° S 04:31:33 17° SW 04:35:06 10° W visible
02 Nov 5.0 02:50:10 10° SSE 02:56:00 63° WSW 03:01:46 10° NNW visible
02 Nov 7.4 04:33:27 10° SSW 04:36:47 16° SW 04:40:05 10° W visible
